Location: Unspecified
(40.7945°N, 111.1337°W)
Time: 18:08:04
(UTC-06:00)

Resurs 1-4 Rocket - Visible Passes

Search period start: 22 March 2019 00:00
Search period end: 01 April 2019 00:00
Orbit: 800 x 813 km, 98.6° (Epoch: 21 March)

Date Brightness Start Highest point End Pass type
(mag) Time Alt. Az. Time Alt. Az. Time Alt. Az.
22 Mar 5.1 02:36:43 10° NNE 02:36:47 10° NNE 02:36:47 10° NNE visible
22 Mar 4.4 04:16:51 10° N 04:17:51 15° NNW 04:17:51 15° NNW visible
23 Mar 4.4 03:51:50 10° N 03:53:05 17° N 03:53:05 17° N visible
24 Mar 4.5 03:27:04 10° N 03:28:19 18° N 03:28:19 18° N visible
25 Mar 4.7 03:02:30 10° NNE 03:03:32 16° NNE 03:03:32 16° NNE visible
25 Mar 4.4 04:43:47 10° NNW 04:44:37 13° NNW 04:44:37 13° NNW visible
26 Mar 4.9 02:38:11 10° NNE 02:38:45 13° NNE 02:38:45 13° NNE visible
26 Mar 4.2 04:18:23 10° N 04:19:50 17° NNW 04:19:50 17° NNW visible
27 Mar 4.1 03:53:21 10° N 03:55:04 20° N 03:55:04 20° N visible
28 Mar 4.2 03:28:34 10° N 03:30:17 21° N 03:30:17 21° N visible
29 Mar 4.4 03:03:59 10° NNE 03:05:30 20° NNE 03:05:30 20° NNE visible
29 Mar 4.2 04:45:21 10° NNW 04:46:35 14° NW 04:46:35 14° NW visible
30 Mar 4.7 02:39:38 10° NNE 02:40:43 16° NE 02:40:43 16° NE visible
30 Mar 4.0 04:19:54 10° N 04:21:49 19° NNW 04:21:49 19° NNW visible
31 Mar 4.9 02:15:37 10° NE 02:15:56 11° NE 02:15:56 11° NE visible
31 Mar 3.9 03:54:51 10° N 03:57:02 23° NNW 03:57:02 23° NNW visible
